Location: Newark
(34.5992°S, 58.3747°W)
Time: 21:58:44
(UTC+00:00)

Hubble Space Telescope - Visible Passes

Search period start: 11 December 2019 00:00
Search period end: 21 December 2019 00:00
Orbit: 536 x 540 km, 28.5° (Epoch: 11 December)

Date Brightness Start Highest point End Pass type
(mag) Time Alt. Az. Time Alt. Az. Time Alt. Az.
11 Dec 1.6 00:19:48 10° NW 00:23:30 31° N 00:24:30 27° NE visible
12 Dec 1.6 00:09:05 10° WNW 00:12:51 33° N 00:14:42 22° NE visible
12 Dec 3.5 01:49:58 10° WNW 01:50:02 10° WNW 01:50:02 10° WNW visible
12 Dec 1.5 23:58:24 10° WNW 00:02:12 34° N 00:04:46 18° ENE visible
13 Dec 3.2 01:39:24 10° WNW 01:40:06 14° WNW 01:40:06 14° WNW visible
13 Dec 1.6 23:47:44 10° WNW 23:51:33 35° N 23:54:44 14° ENE visible
14 Dec 2.9 01:28:52 10° WNW 01:30:04 16° WNW 01:30:04 16° WNW visible
14 Dec 1.6 23:37:06 10° WNW 23:40:55 35° N 23:44:38 10° ENE visible
15 Dec 2.8 01:18:22 10° WNW 01:19:58 18° NW 01:19:58 18° NW visible
15 Dec 1.7 23:26:29 10° WNW 23:30:16 34° N 23:34:02 10° ENE visible
16 Dec 2.7 01:07:56 10° WNW 01:09:50 18° NW 01:09:50 18° NW visible
17 Dec 2.7 00:57:34 10° WNW 00:59:40 17° NNW 00:59:40 17° NNW visible
18 Dec 2.9 00:47:22 10° NW 00:49:30 14° NNW 00:49:30 14° NNW visible
19 Dec 3.0 00:37:28 10° NW 00:38:53 11° NNW 00:39:21 11° NNW visible
